Theta_e
346 348 349 350 351 351 348 348 347 346 344 343 343 343 343 343 344 344 345 344 345 346 344 343 343 341 341 343 341 342 342 343 343 342 342 341 341 344 343 345 346 346 346 345 346 344 342 342 343 344 345 346 348 347 345 341 341 344 343 343 343 343
347 347 348 349 348 350 348 347 347 346 345 344 344 344 345 345 344 344 345 348 350 346 346 348 346 340 346 345 342 341 341 342 342 343 343 345 345 347 348 348 347 348 347 346 346 343 340 344 345 347 346 347 347 345 344 343 343 343 344 344 345 347
345 347 348 346 348 348 345 346 345 344 342 343 344 346 344 345 344 342 348 348 348 347 347 347 345 344 341 340 342 343 343 344 345 346 347 347 348 348 349 349 349 349 348 347 343 338 338 339 343 347 349 348 343 344 344 347 344 344 345 345 345 346
346 349 347 346 347 347 344 345 343 343 342 343 343 342 343 343 343 346 345 348 348 349 350 353 348 349 348 346 345 346 346 345 348 347 348 349 348 349 349 349 348 350 349 345 342 342 340 340 343 344 345 344 342 343 343 344 347 346 345 345 343 344
348 348 346 346 345 345 345 342 342 340 342 340 343 343 343 346 346 348 348 350 348 350 348 351 353 349 349 348 346 347 347 349 346 348 347 348 347 345 349 347 346 346 346 344 345 348 346 345 347 345 344 345 346 345 344 346 344 344 345 344 343 343
348 347 346 346 345 344 345 343 343 339 341 342 341 341 343 345 347 349 348 348 349 349 348 348 352 352 351 350 350 347 346 348 347 347 347 348 351 348 345 345 347 344 348 348 347 349 347 345 345 344 344 345 345 345 344 341 343 344 345 343 341 340
346 346 346 345 344 345 342 342 342 341 340 340 342 342 342 343 346 349 348 348 348 346 346 347 352 350 352 350 349 347 349 349 350 348 350 348 346 348 349 350 346 346 346 346 344 345 344 344 344 340 344 343 343 343 344 344 345 344 343 341 339 338
346 346 347 344 343 342 342 343 342 340 341 340 340 342 341 344 347 347 349 350 349 347 346 346 350 350 349 350 351 351 352 353 352 353 349 354 351 352 357 346 345 344 343 344 342 344 343 342 343 345 344 343 343 344 344 342 344 344 343 341 338 336
346 346 347 345 342 342 342 344 342 340 339 342 342 342 342 346 346 345 350 350 349 348 345 349 350 349 350 351 350 348 353 353 351 352 349 346 347 347 346 345 346 343 345 344 344 343 342 342 345 345 342 341 341 342 342 342 342 343 341 340 337 333
347 347 346 345 342 341 341 342 341 340 338 342 342 344 346 344 343 345 346 349 348 347 346 348 349 348 346 348 348 351 350 353 349 349 348 349 347 346 345 345 345 344 341 343 342 342 343 342 343 344 342 342 341 340 340 338 338 340 340 338 335 332
347 348 346 344 343 343 344 342 339 341 342 339 342 345 344 344 345 346 346 350 348 348 348 352 350 349 349 347 348 348 349 349 350 350 349 348 350 348 346 342 343 342 343 342 342 342 341 342 342 341 340 340 339 340 338 339 337 338 338 338 335 332
347 347 346 343 344 343 343 341 341 340 342 342 346 343 341 344 344 344 348 350 350 349 349 352 352 351 349 348 349 350 351 348 350 351 351 347 347 345 344 342 342 343 343 343 343 343 343 341 340 338 338 336 336 337 336 336 335 335 334 335 335 334
347 347 346 344 343 343 344 342 342 343 343 345 344 344 343 344 345 348 350 349 350 351 352 352 352 351 349 348 349 345 349 347 350 351 350 349 347 346 345 343 343 342 342 342 341 340 339 340 339 337 337 335 335 333 334 333 333 333 331 330 327 326
346 346 347 346 345 344 346 345 344 345 345 344 342 341 344 345 346 346 348 351 351 349 351 350 350 352 350 347 348 347 346 347 348 350 350 349 345 345 343 342 341 342 338 338 336 338 337 336 335 335 335 334 334 333 332 331 330 330 329 327 324 324
346 347 347 345 345 345 346 345 343 345 346 345 344 344 344 345 344 346 348 350 352 349 350 350 351 352 349 353 347 345 345 345 348 350 346 346 344 344 342 340 339 340 339 336 334 335 334 336 334 333 333 333 331 329 330 328 328 327 326 326 324 322
346 347 346 346 346 347 347 347 345 345 348 346 343 344 343 345 345 348 350 350 351 350 349 349 350 348 347 344 347 344 345 349 347 348 346 346 345 341 341 340 340 339 336 334 332 334 335 334 333 331 331 330 329 329 327 325 324 322 323 323 322 322
346 347 346 346 346 347 347 345 346 345 346 345 343 343 344 346 346 350 348 348 350 349 348 349 348 343 345 344 347 346 347 346 347 346 345 343 341 341 341 338 339 339 338 334 331 331 333 331 329 328 327 328 327 327 325 324 322 321 319 318 320 319
346 347 345 347 347 348 347 345 345 345 345 344 345 343 345 346 349 348 347 347 349 348 345 343 342 343 345 346 346 347 346 346 345 344 343 341 342 341 340 340 337 337 336 334 332 333 331 328 327 325 324 324 325 324 322 321 319 318 317 317 318 316
347 345 345 347 347 347 347 346 346 345 344 344 344 345 345 346 348 348 348 348 346 346 343 342 343 344 342 347 345 348 345 345 344 342 341 340 340 339 338 337 337 337 334 335 334 333 329 327 325 323 321 322 322 321 319 318 319 317 317 316 314 314
346 345 347 346 345 343 343 340 340 341 341 341 342 342 347 347 346 344 344 347 342 341 341 341 341 345 345 344 343 344 343 343 341 341 340 339 338 337 336 336 334 332 332 331 334 331 328 324 322 320 319 318 319 319 316 317 317 315 316 314 314 315
345 345 345 343 341 340 338 338 340 339 339 341 340 341 342 343 342 342 343 344 343 343 341 342 342 344 342 341 342 341 341 340 340 340 338 338 337 336 335 334 333 333 331 331 331 331 327 325 321 319 319 319 318 317 317 316 315 313 311 312 313 313
344 345 343 343 341 341 341 339 338 338 339 338 339 339 339 341 341 342 343 343 343 343 342 341 342 342 342 341 340 339 339 338 337 336 335 334 333 332 333 334 333 330 333 331 330 330 326 326 322 319 317 317 317 315 315 314 311 310 311 312 313 312
345 343 344 343 342 340 341 342 341 340 339 338 341 341 340 338 339 339 340 341 341 342 340 338 338 338 339 339 339 338 337 336 336 335 334 333 332 332 332 331 332 328 326 330 329 331 329 330 325 325 325 320 317 312 310 309 310 309 310 311 310 309
344 344 343 342 342 343 343 343 343 342 342 340 336 337 336 336 336 336 336 338 338 337 338 336 335 335 336 337 336 336 335 335 334 334 334 333 331 331 332 332 331 329 326 322 324 326 329 330 328 328 320 320 320 318 307 307 307 309 309 307 308 308
344 343 342 342 342 343 342 341 339 338 338 335 335 334 333 333 335 334 334 335 334 335 335 334 335 335 334 334 335 335 334 334 333 333 333 331 330 330 331 331 330 328 328 325 321 324 327 328 329 328 322 321 318 318 315 308 308 307 310 306 306 306
342 342 341 340 342 342 341 337 334 332 330 331 330 331 331 332 331 331 331 333 335 334 333 333 333 334 332 332 332 332 333 332 332 331 331 330 328 328 328 327 326 326 325 324 321 318 317 321 324 321 322 320 317 319 310 309 307 300 307 309 307 305
341 339 340 340 341 341 339 338 336 335 335 334 332 333 337 336 335 334 333 333 333 334 332 332 332 331 330 330 330 331 331 331 330 329 329 330 328 327 325 325 325 323 321 320 318 313 313 313 315 316 315 315 318 320 321 309 311 304 303 306 306 306
342 339 340 340 341 340 338 338 338 337 336 335 335 333 333 333 335 334 333 332 332 332 332 331 330 329 329 329 329 329 329 329 327 327 326 326 325 324 323 323 323 324 325 324 320 317 314 313 311 311 314 313 312 315 319 318 317 313 308 302 301 304
341 338 340 341 340 340 339 339 339 337 336 336 335 332 331 332 332 332 331 331 332 332 331 330 330 328 328 328 328 328 327 326 324 323 323 323 323 323 322 321 321 321 321 321 320 318 313 310 311 310 312 312 311 309 310 313 313 313 308 306 303 304
340 338 340 341 341 340 340 339 339 338 336 334 332 331 332 331 331 331 330 331 330 329 327 327 328 327 327 327 326 326 325 324 323 322 320 320 319 319 319 319 319 319 320 319 319 319 318 318 318 318 317 317 313 311 309 309 309 307 306 307 304 303
339 340 341 340 341 339 340 339 338 336 334 332 332 330 330 331 330 330 329 329 328 327 326 325 326 327 326 326 326 325 323 322 321 320 317 316 315 314 315 317 318 318 318 318 317 316 317 317 316 315 314 313 312 311 310 309 308 309 310 306 303 302
339 340 340 340 340 339 339 339 336 335 333 333 333 331 330 329 330 329 328 327 326 326 326 326 326 325 325 324 324 322 322 321 319 318 316 315 315 314 314 314 314 315 316 317 317 316 316 314 314 312 312 311 311 312 312 310 309 311 310 308 305 302
337 338 340 340 339 340 339 337 333 335 336 334 333 333 331 330 330 328 328 327 326 325 325 324 324 324 323 323 322 321 321 319 318 318 316 315 315 315 315 315 315 315 316 316 317 317 315 315 314 311 310 311 310 311 310 311 312 311 311 311 311 303
337 338 338 339 340 339 338 338 336 336 336 334 333 333 333 330 330 329 329 328 327 326 324 324 323 324 322 322 321 321 320 318 317 316 315 314 314 313 314 311 313 313 313 314 315 316 314 314 314 313 313 310 310 310 310 311 311 310 309 309 307 307
336 338 338 338 339 338 338 338 336 334 334 334 333 332 331 331 330 331 329 328 327 326 325 324 323 323 323 323 321 319 318 316 316 315 315 314 314 314 314 313 312 313 313 314 314 313 313 313 312 312 312 311 310 309 309 310 310 309 309 308 307 307
337 338 338 338 338 338 338 338 336 336 334 334 334 333 332 332 332 332 331 328 327 327 326 324 323 322 321 320 318 317 316 315 314 314 314 313 313 313 313 312 311 311 311 312 311 311 312 313 312 312 311 311 310 309 310 309 310 309 308 308 308 306
338 338 338 337 337 337 337 336 335 335 334 333 333 333 331 331 331 329 329 329 327 327 326 324 322 321 320 319 318 316 315 313 313 313 313 312 311 311 311 312 311 311 311 312 311 310 310 310 311 311 310 310 309 309 309 310 310 310 309 309 307 306
Wind_Speed
12 13 12 11 11 12 12 15 12 12 11 10 9 9 8 9 9 8 9 10 11 8 7 7 9 7 9 7 7 6 7 5 6 6 5 5 5 5 6 6 5 7 7 9 9 10 10 10 10 10 10 10 11 7 5 5 10 6 4 4 5 7
10 12 12 10 10 10 10 12 10 9 8 9 9 10 9 8 8 7 10 9 8 6 6 7 7 9 8 8 7 7 8 7 7 7 6 6 7 7 8 8 8 9 9 11 12 7 8 10 11 10 11 11 7 5 4 4 4 4 5 3 7 9
11 11 12 11 10 10 11 9 9 9 8 9 9 10 8 8 8 7 8 7 6 4 4 5 6 7 6 8 8 9 8 10 8 9 8 7 8 8 9 9 10 10 11 11 8 7 7 6 6 10 10 7 5 5 1 9 5 5 5 7 7 13
10 11 10 9 8 9 8 8 8 8 7 8 8 8 7 7 7 6 5 4 4 4 4 4 5 7 9 6 7 9 10 9 9 8 10 8 9 10 11 12 12 12 10 8 7 7 3 6 6 7 6 6 5 4 6 6 2 6 5 9 10 17
10 11 10 8 8 7 8 7 7 7 8 7 8 7 6 6 5 5 5 4 5 4 4 5 5 5 5 5 6 6 6 6 7 7 10 6 6 5 9 6 8 9 6 6 3 1 0 0 2 2 2 2 3 2 9 2 6 6 7 9 11 17
9 9 8 8 7 7 7 6 7 7 8 7 7 6 6 5 5 6 5 4 4 4 4 6 5 5 5 3 5 6 6 6 5 6 7 5 3 4 7 5 5 7 7 1 1 1 2 1 2 1 3 3 4 3 4 6 5 7 8 9 11 18
9 8 9 8 7 7 6 6 5 6 7 6 5 6 5 5 6 6 5 4 5 4 4 4 5 4 6 8 9 7 5 5 4 3 6 3 5 7 4 7 3 1 1 2 2 1 0 4 3 3 3 3 4 4 4 8 6 8 8 8 12 19
9 9 7 8 8 7 7 7 7 7 7 8 7 7 6 5 5 5 5 4 4 3 4 3 4 5 4 3 2 2 4 4 4 6 9 7 5 4 2 1 2 1 1 3 2 2 2 3 2 2 3 3 3 4 4 6 8 7 7 8 9 15
10 9 8 8 8 7 7 7 7 6 7 8 7 6 5 6 6 5 4 4 4 3 2 3 2 3 3 1 2 2 1 3 5 3 4 1 1 2 1 3 2 1 2 1 2 1 2 3 3 3 2 4 3 4 3 4 7 7 6 7 8 12
10 9 8 8 7 7 7 7 7 8 6 8 6 5 6 5 5 4 4 4 3 2 2 2 2 2 3 2 2 0 0 1 3 1 2 3 2 3 2 2 2 2 2 2 2 3 1 3 3 3 4 4 4 4 4 5 6 7 7 7 8 10
10 9 8 8 7 8 7 8 8 8 7 7 6 6 6 5 4 4 4 3 3 2 2 1 1 2 2 3 2 2 4 1 1 1 1 2 2 1 3 2 3 3 3 3 3 3 3 2 2 4 4 4 4 5 5 6 6 7 7 6 6 8
9 9 8 8 7 8 8 8 8 8 6 6 5 6 6 5 4 4 3 3 2 2 1 0 1 2 2 2 2 1 2 5 3 1 1 3 3 3 3 4 2 3 1 1 2 3 3 3 4 5 5 6 6 5 6 6 6 7 8 6 5 6
10 10 10 9 9 9 7 7 7 6 6 6 7 5 5 4 3 3 3 2 2 2 2 1 2 3 5 3 2 0 2 2 2 1 2 2 3 1 1 1 1 1 1 2 1 4 3 4 4 4 5 6 5 7 7 6 6 6 6 7 7 6
10 10 10 9 8 8 8 7 6 6 7 7 6 5 4 4 4 4 3 3 2 3 2 2 3 3 4 4 0 2 2 1 0 3 2 1 1 2 2 1 3 0 2 1 2 2 2 4 4 5 5 5 6 6 6 6 6 6 6 7 7 7
10 11 10 10 10 9 8 7 7 7 6 7 5 4 4 4 5 3 3 3 3 2 2 3 3 1 1 3 1 4 4 2 3 2 2 2 1 2 1 3 3 3 1 2 3 4 4 3 4 4 5 5 5 5 5 5 5 6 7 6 6 6
12 12 11 11 10 8 8 6 7 7 6 6 5 5 5 4 3 3 3 3 2 2 3 3 3 1 2 1 2 1 1 2 3 3 2 3 2 1 3 3 4 4 2 2 2 6 1 4 4 5 5 5 5 5 5 5 6 7 6 5 6 5
13 13 12 11 9 8 7 8 7 7 6 6 5 5 4 4 4 3 2 3 3 2 3 2 3 5 2 1 5 1 3 3 4 3 2 2 2 2 2 3 3 3 3 2 3 5 4 4 5 5 5 5 5 5 5 5 6 5 5 6 5 5
11 12 11 9 9 8 7 7 7 6 6 6 5 4 4 4 3 3 3 2 2 2 3 3 4 2 3 6 1 2 4 4 3 3 2 2 2 2 3 2 2 1 2 3 1 6 5 5 5 5 5 6 5 5 5 5 6 5 5 5 5 5
12 12 11 10 8 8 8 7 5 5 7 6 5 4 4 4 3 3 2 3 3 4 4 0 5 5 3 3 4 4 3 4 3 2 1 1 2 3 3 1 2 3 0 3 1 5 6 5 6 5 6 6 6 6 5 5 4 4 4 5 5 5
12 12 10 10 8 8 8 8 8 8 7 6 5 5 3 3 3 3 3 3 4 1 3 5 2 3 2 3 3 4 4 2 2 2 1 0 2 2 1 1 1 1 3 2 2 8 6 7 7 7 7 7 6 6 6 4 4 4 4 5 4 4
12 12 11 11 10 9 9 8 8 7 7 6 5 5 4 3 3 4 3 4 4 4 1 1 2 2 2 3 4 3 3 3 2 2 2 1 0 1 0 2 2 2 2 3 5 7 8 7 7 6 5 6 6 5 4 3 4 4 5 4 4 3
12 12 12 10 8 8 8 8 8 8 7 6 6 5 5 4 3 5 4 5 4 2 4 4 3 3 4 4 3 3 3 2 2 3 3 1 1 1 2 2 0 3 2 4 5 7 7 7 5 5 6 5 5 4 4 4 4 5 4 4 4 3
10 11 10 10 8 8 8 7 7 7 7 6 4 4 6 6 4 4 4 4 3 4 4 4 4 3 2 3 3 3 2 2 2 1 4 2 2 2 1 1 4 3 4 2 2 4 8 7 2 7 5 6 5 5 4 4 4 5 4 3 2 3
11 11 11 10 8 8 7 7 6 7 6 6 6 7 7 6 6 6 5 4 4 4 5 5 4 2 2 3 2 2 1 2 1 2 1 3 1 1 2 2 2 2 4 5 4 3 3 4 4 2 6 5 6 5 6 4 5 3 4 4 4 4
11 9 8 9 10 9 9 10 9 9 8 9 6 6 7 5 5 5 6 4 3 4 5 4 3 2 1 1 2 2 2 1 1 1 2 2 1 1 2 2 2 1 1 1 5 3 2 1 2 1 5 4 5 6 2 8 6 4 2 3 4 4
8 9 9 13 13 10 10 10 10 9 8 7 6 7 8 8 7 6 5 3 2 5 6 3 0 1 2 1 0 2 2 1 1 1 1 2 2 2 2 3 2 2 3 3 4 4 4 1 2 1 3 3 3 4 4 8 7 4 1 3 2 3
10 9 11 13 14 10 11 10 10 10 9 8 7 5 4 6 7 7 6 5 4 5 4 2 1 0 0 1 1 2 1 1 1 2 2 2 2 2 3 3 2 3 3 3 2 4 4 5 4 4 3 4 4 1 4 5 2 8 6 3 2 2
12 11 11 13 13 10 11 11 11 10 8 7 8 9 9 7 6 6 6 5 5 5 2 1 1 1 1 1 2 2 2 2 2 3 3 3 3 3 3 4 4 4 4 3 2 3 3 3 3 4 4 3 3 3 4 4 5 2 3 6 5 3
12 14 12 13 12 11 10 10 9 8 8 6 6 9 8 8 7 6 6 4 4 4 3 2 2 2 1 2 2 2 2 2 3 4 4 4 4 5 5 5 4 4 4 4 4 4 4 4 4 4 4 4 5 4 4 4 3 3 2 4 5 6
13 13 13 15 13 13 12 9 8 9 10 9 9 9 9 9 8 7 8 6 5 4 4 3 3 2 3 4 2 3 3 4 4 5 5 6 6 6 6 6 6 6 5 6 5 5 5 4 4 3 3 1 3 3 3 3 2 1 2 5 1 3
15 13 14 15 15 14 11 10 8 11 11 10 11 11 10 10 9 8 8 7 7 6 4 4 3 3 3 3 3 3 4 4 5 5 5 5 5 6 6 6 7 8 7 7 6 6 6 6 5 5 5 4 3 4 3 3 3 2 1 2 2 2
15 14 14 14 15 12 11 10 7 9 12 11 12 10 11 10 10 10 9 8 7 6 6 5 4 4 4 4 3 4 4 5 5 5 5 5 5 6 6 6 6 6 7 7 6 6 6 6 6 5 6 5 5 4 4 4 3 3 3 2 1 1
18 17 14 14 15 13 13 10 8 9 10 10 11 11 11 10 10 9 8 8 8 7 6 6 5 5 5 4 4 4 4 4 5 5 6 6 6 7 6 6 6 7 6 6 5 5 5 6 6 5 5 4 4 4 4 4 3 3 2 2 3 1
18 17 13 14 15 15 13 11 11 9 11 10 12 11 10 10 10 9 8 8 7 7 6 6 5 5 5 6 4 4 5 6 6 6 6 7 7 7 7 7 7 7 7 6 6 7 7 7 6 5 4 5 5 5 5 4 4 4 4 4 4 4
15 15 15 13 13 14 12 13 12 14 13 13 13 11 10 9 11 11 10 9 7 6 6 5 5 6 6 5 6 6 6 6 6 7 7 7 7 7 7 7 7 7 6 6 6 6 6 6 6 6 6 5 5 5 5 4 4 5 5 5 4 4
17 15 14 15 15 15 13 12 13 14 14 14 12 10 8 8 9 8 8 9 8 7 6 6 6 6 7 7 7 7 7 7 7 7 7 7 7 7 6 6 7 6 7 5 7 8 7 7 6 6 6 6 5 5 4 4 4 5 5 5 5 5
16 14 16 18 16 15 13 12 14 15 14 13 13 13 11 11 10 10 8 6 6 7 6 5 7 7 7 7 7 7 7 7 7 7 7 7 7 7 7 6 6 7 6 6 6 6 5 5 6 6 6 6 5 5 4 4 5 4 4 4 5 5
Wind_Direction
169 162 156 149 145 138 131 129 131 130 133 139 146 149 141 134 138 151 164 174 175 170 157 153 179 169 171 186 184 213 177 190 203 201 197 198 203 201 206 209 210 216 217 217 219 224 222 217 221 232 232 242 251 254 258 320 30 45 51 44 41 42
163 159 155 150 146 140 145 148 141 145 150 149 160 161 166 152 150 159 193 178 196 173 166 165 166 154 181 159 172 176 193 189 200 201 198 205 201 209 210 213 215 216 220 218 219 219 213 221 222 217 225 236 239 250 260 69 92 72 49 40 46 30
164 160 157 154 145 145 153 149 147 162 149 166 164 178 169 165 158 169 178 188 196 172 181 148 155 177 154 171 150 181 187 197 195 203 208 210 216 214 219 217 218 224 225 228 226 223 218 196 201 216 233 230 253 244 342 63 60 58 67 46 52 31
161 158 158 153 147 158 156 154 159 156 159 165 177 183 173 180 168 186 172 177 186 182 169 151 147 140 135 159 151 189 194 200 206 215 211 218 217 224 221 221 225 221 225 230 228 222 220 164 182 188 205 230 247 24 50 92 47 90 63 55 46 37
165 161 160 150 154 162 156 160 158 156 167 168 189 173 172 181 169 171 188 189 193 186 174 140 160 160 180 159 164 189 184 204 201 193 208 215 202 202 208 206 212 215 230 225 206 39 224 275 286 280 236 357 332 348 78 71 89 69 69 58 48 37
165 171 158 153 161 154 155 166 164 169 167 178 183 175 171 169 175 191 194 193 194 192 191 153 173 175 199 191 191 181 196 196 205 221 176 214 211 225 210 233 234 210 225 242 127 101 25 326 347 42 355 21 343 8 62 96 88 76 68 64 48 43
171 163 161 155 155 155 169 167 167 181 176 164 178 181 176 176 181 185 197 194 198 200 200 159 163 207 210 202 169 210 207 214 195 217 218 143 209 218 211 222 218 252 46 91 28 28 39 54 5 351 47 19 12 18 44 95 75 86 83 75 57 45
169 161 158 164 155 169 174 164 177 183 195 155 181 190 175 179 172 194 196 198 214 222 199 190 183 188 201 213 244 141 169 194 197 178 190 159 196 185 278 321 76 132 106 63 20 37 19 62 50 22 36 30 35 49 53 81 99 85 84 80 71 52
162 168 162 167 169 171 170 172 173 182 204 153 189 193 167 169 188 178 193 208 211 228 219 224 183 200 210 194 215 148 22 226 122 281 11 121 350 62 238 38 46 357 71 89 117 46 37 47 19 33 20 65 47 58 42 79 92 85 78 80 77 63
165 167 164 172 179 168 175 173 165 201 170 176 186 178 166 184 186 177 178 208 205 211 235 238 177 239 204 192 162 68 174 328 9 339 347 44 11 15 44 62 35 9 24 83 72 64 334 77 80 60 31 52 50 48 39 44 74 84 84 85 90 80
171 166 170 181 179 164 178 179 172 199 167 195 173 173 188 179 173 187 164 181 205 198 209 262 247 223 225 204 153 200 176 160 175 145 244 54 40 39 42 50 47 16 12 30 33 46 26 33 79 94 73 66 61 58 52 44 49 74 84 92 100 93
171 169 176 180 182 170 179 185 175 194 171 183 166 187 188 174 175 165 160 167 177 206 210 181 266 239 218 257 53 328 343 50 311 33 326 23 41 13 30 33 22 65 45 13 65 66 71 55 32 41 62 54 52 63 66 56 57 49 57 67 76 98
169 173 185 181 182 171 181 181 180 182 170 163 190 194 166 169 171 150 157 166 170 163 204 180 225 238 223 114 112 121 320 181 238 261 65 64 37 73 111 88 68 70 84 63 51 79 45 74 52 50 42 57 66 60 60 64 59 62 67 58 53 54
172 181 184 183 183 175 178 179 173 179 164 177 188 181 160 166 173 165 153 143 163 179 201 208 210 209 259 116 199 275 211 149 313 79 94 89 116 57 38 36 49 24 1 91 51 42 89 65 65 52 60 56 58 56 65 65 67 70 60 62 55 44
176 182 185 188 181 180 175 181 175 175 163 188 167 170 173 173 180 163 171 154 173 183 193 204 226 291 264 56 223 244 201 135 115 84 76 68 29 70 35 38 42 14 50 33 93 34 55 74 79 85 65 63 71 78 72 74 77 67 67 66 66 56
176 183 185 184 186 176 173 189 174 164 171 181 170 177 178 174 154 147 169 139 157 178 200 206 228 196 61 342 304 256 249 115 82 92 52 59 43 66 31 28 35 7 343 37 17 102 57 86 78 69 73 69 70 74 78 74 63 61 59 60 59 55
178 184 184 180 175 169 182 182 169 160 179 174 176 176 166 145 156 161 151 151 154 184 203 210 251 123 274 264 250 237 93 95 105 82 71 63 59 63 66 53 44 18 347 254 144 110 102 96 96 93 81 76 73 65 63 60 62 67 72 53 54 71
178 182 177 174 169 176 180 175 166 171 172 174 171 160 152 154 144 157 152 131 132 96 337 333 249 129 191 251 2 167 81 77 79 90 100 100 62 47 58 28 64 360 318 299 29 106 117 103 104 91 80 72 68 70 71 68 58 48 56 73 81 66
180 179 171 170 161 174 173 175 152 174 173 168 165 153 158 149 136 120 131 116 89 45 306 219 289 103 272 228 145 87 71 64 68 78 95 147 127 85 60 20 336 135 61 336 245 116 115 126 115 105 93 83 77 74 66 55 66 67 60 57 55 58
181 172 161 167 168 183 176 179 168 175 166 170 160 146 134 122 130 121 108 83 77 6 182 253 239 345 109 88 90 79 74 57 62 57 54 29 86 88 76 155 199 311 117 191 178 113 126 112 95 89 85 73 64 65 67 67 75 74 83 75 52 56
180 170 164 174 173 179 178 177 175 171 162 158 154 141 134 121 109 80 90 76 99 166 185 145 12 48 44 69 65 69 65 39 21 44 34 17 304 51 210 254 121 297 132 168 142 131 123 127 129 115 106 94 81 61 59 78 91 92 83 61 69 63
174 167 172 172 174 177 183 181 176 167 163 154 157 165 154 127 100 94 88 88 94 88 86 51 53 45 40 34 48 65 58 51 4 55 345 97 358 268 216 217 173 157 165 168 150 141 147 166 160 149 143 136 105 77 67 59 54 65 66 100 118 105
169 172 171 167 175 180 188 169 174 158 160 142 106 111 105 104 101 111 81 54 48 46 49 78 44 39 10 26 32 39 59 50 314 224 201 173 197 219 240 120 210 156 141 109 122 158 165 225 223 157 171 163 152 147 131 104 86 73 68 61 52 74
173 176 172 160 177 179 166 150 148 141 133 126 131 112 109 114 125 128 106 74 56 49 54 59 42 17 18 37 358 333 206 218 176 249 276 207 123 117 195 188 181 158 153 149 171 156 201 219 271 237 201 219 161 184 145 143 120 87 100 80 52 51
170 173 154 146 176 162 148 126 116 112 101 99 117 124 120 140 141 120 108 100 89 73 70 67 48 345 357 301 306 303 309 255 264 280 235 72 139 153 172 129 127 133 317 175 134 139 132 282 325 335 321 292 155 209 164 136 135 126 123 110 95 92
170 137 145 168 171 160 149 141 143 138 143 156 154 163 169 163 147 134 115 102 66 75 70 49 274 269 333 358 265 302 282 240 181 186 82 134 125 132 118 138 133 133 96 56 123 137 128 114 180 17 19 28 346 7 112 149 176 121 78 78 96 67
164 163 171 177 171 158 159 151 156 160 168 174 169 169 133 148 146 139 136 115 88 77 81 117 305 36 204 314 303 245 194 235 107 119 115 103 111 103 90 63 75 89 101 108 120 116 125 127 109 66 62 44 28 42 23 149 215 124 151 151 131 136
175 168 178 176 169 165 168 170 167 163 171 179 170 149 155 150 144 137 127 108 103 87 127 219 147 213 120 162 186 169 172 106 131 125 126 109 96 83 98 80 58 66 54 50 86 108 109 97 91 85 49 63 94 59 48 44 7 306 177 160 157 120
167 175 177 172 168 173 178 179 172 159 168 167 135 137 151 152 147 130 109 121 125 136 172 156 141 138 195 113 165 149 129 150 134 121 111 102 88 83 77 82 83 76 76 73 55 79 104 95 101 98 94 75 53 60 77 52 31 346 353 177 159 171
176 177 183 179 178 175 181 172 166 161 154 155 145 154 158 156 154 151 156 146 150 154 156 154 150 141 187 153 136 123 131 105 91 78 82 86 93 90 85 81 79 81 86 80 64 56 64 67 71 47 61 100 115 104 82 86 69 95 43 356 83 153
187 179 180 180 182 179 172 165 149 160 160 161 166 163 164 159 156 161 160 161 164 156 158 150 152 153 146 115 140 114 110 112 101 105 104 105 100 100 95 89 86 83 79 81 80 80 73 74 69 65 61 58 67 49 51 73 50 25 358 133 143 148
186 188 180 180 178 171 166 161 145 160 161 173 169 168 166 165 165 166 166 163 162 157 160 155 159 156 154 141 133 123 111 107 104 102 101 103 103 98 97 96 90 85 81 81 87 84 86 82 83 84 73 68 62 63 58 60 59 21 12 25 348 52
193 189 186 175 173 169 171 149 159 173 164 166 177 171 169 172 169 165 169 167 163 163 161 161 167 164 148 160 138 138 129 109 102 93 98 99 95 95 94 93 88 82 80 80 74 75 75 71 78 81 78 64 66 75 76 62 35 35 32 6 335 107
190 184 180 171 171 174 171 164 160 174 171 166 174 172 174 168 168 172 171 171 167 164 164 166 165 164 151 165 140 122 114 106 103 109 110 108 108 106 104 101 98 95 92 89 88 88 85 82 76 76 76 81 75 73 66 50 53 51 37 34 36 16
184 177 178 166 175 174 171 170 159 172 160 182 173 170 168 165 175 174 164 164 168 163 162 164 162 157 157 139 130 127 124 120 114 113 111 108 104 101 100 100 99 95 91 85 88 88 88 85 82 81 82 85 84 73 64 56 46 47 48 41 36 12
181 181 176 172 181 175 173 167 162 166 166 175 171 165 164 167 168 174 167 167 157 160 157 163 161 161 159 147 140 133 128 123 125 121 119 117 115 110 109 107 102 100 96 97 100 98 99 93 89 87 84 83 79 71 56 55 63 52 43 43 41 22
177 176 178 178 176 174 169 160 169 170 165 172 168 168 164 167 162 162 155 153 162 162 153 149 157 163 158 145 144 138 129 127 128 125 118 115 115 116 118 108 106 106 104 102 95 90 92 97 93 85 82 78 80 81 70 67 61 54 49 46 47 37